Content
SEND FEEDBACK

Daily
Averages
Monthly
Summary
United States of America

ALPINE MEADOWS, CALIFORNIA


Home > North America > United States > California
Elevation: 1900 meters     Latitude: 39 12N     Longitude: 120 14W

WEATHER
 
SELECT A DAY
Number of Records: 286,503;   Date Range: 1/1/95 - 9/30/14
 
SHARE

PRINT THIS DATA

[ ← Previous Day ]
WEATHER ALMANAC - 8 AUGUST, 2014
[ Next Day → ]
[ °F ]   °C
Weather ElementAverageHighLow
Temperature14.2 °C28 °C (1:50 pm)6 °C (4:15 am)
Dewpoint5.8 °C11 °C (12:15 am)2 °C (6:15 pm)
Humidity66.3 %100 % (1:15 am)21 % (12:45 pm)
Barometer1022.4 hPa1023.4 hPa (12:50 pm)1020.7 hPa (4:45 pm)
Wind Speed4.8 km/h22.2 km/h (2:45 pm)
Wind Gust33.3 km/h (11:45 am)
Weather ElementAverage
Visibility13.5 km
Wind DirectionE (85 °)

Weather ElementTotal
Precipitation---
Heating Degree Days1.3 (Base 18.3)
Growing Degree Days7 (Base 10)
Averaged from 50 records on 8 August, 2014
WEATHER CONDITIONS BREAKOUT
WIND DIRECTION BREAKOUT
WEATHER BY HOUR - 8 AUGUST, 2014
[ °F ]   °C
Local TimeTemperatureDewpointHumidityBarometerVisibilityWind DirectionWind SpeedGust SpeedPrecipitationEventsConditions
12:15 AM11 °C9 °C88 %1023.4 hPa16.1 kmCalmClear
12:35 AM11 °C9 °C88 %1023.4 hPa16.1 kmCalmClear
12:55 AM9 °C8 °C93 %1023.4 hPa16.1 kmCalmClear
1:15 AM10 °C8 °C87 %1023.4 hPa16.1 kmCalmClear
1:35 AM9 °C8 °C93 %1023.4 hPa16.1 kmCalmClear
1:55 AM10 °C8 °C87 %1023 hPa16.1 kmCalmClear
2:15 AM9 °C8 °C93 %1023 hPa16.1 kmCalmClear
2:35 AM8 °C8 °C100 %1023 hPa11.3 kmCalmClear
2:55 AM8 °C7 °C93 %1023 hPa16.1 kmCalmClear
3:15 AM7 °C7 °C100 %1022.7 hPa16.1 kmCalmClear
3:35 AM7 °C7 °C100 %1023 hPa8 kmCalmClear
3:55 AM7 °C7 °C100 %1022.7 hPa11.3 kmCalmClear
4:15 AM7 °C7 °C100 %1022.7 hPa1.3 kmCalmScattered Clouds
4:35 AM7 °C7 °C100 %1022.7 hPa8 kmCalmClear
4:55 AM7 °C7 °C100 %1022.7 hPa1.9 kmCalmMist
5:15 AM7 °C7 °C100 %1022.7 hPa0.3 kmCalmFogFog
5:35 AM7 °C7 °C100 %1022.7 hPa1.3 kmCalmMostly Cloudy
5:55 AM7 °C7 °C100 %1022.7 hPa0.8 kmCalmFogFog
6:15 AM6 °C6 °C100 %1023 hPa0.3 kmCalmFogFog
6:35 AM6 °C6 °C100 %1023 hPa0.3 kmCalmFogFog
6:50 AM6 °C6 °C100 %1023 hPa16.1 kmCalmPartly Cloudy
7:50 AM11 °C9 °C88 %1023.4 hPa16.1 kmCalmClear
8:50 AM14 °C11 °C82 %1023 hPa16.1 kmCalmClear
9:45 AM18 °C11 °C64 %1022.7 hPa16.1 kmCalmClear
10:55 AM23 °C9 °C41 %1022.4 hPa16.1 kmCalmPartly Cloudy
11:45 AM26 °C7 °C30 %1022.4 hPa16.1 kmWSW (250°)13 km/h33.3 km/hPartly Cloudy
12:45 PM27 °C3 °C21 %1022 hPa16.1 kmWSW (240°)20.4 km/h33.3 km/hPartly Cloudy
1:50 PM28 °C4 °C21 %1021.7 hPa16.1 kmSSW (210°)16.7 km/h25.9 km/hPartly Cloudy
2:45 PM28 °C4 °C21 %1021.3 hPa16.1 kmSSW (210°)22.2 km/h29.6 km/hPartly Cloudy
3:55 PM27 °C5 °C24 %1021 hPa16.1 kmWSW (240°)16.7 km/h31.5 km/hScattered Clouds
4:45 PM27 °C5 °C24 %1020.7 hPa16.1 kmWSW (240°)14.8 km/h25.9 km/hPartly Cloudy
5:55 PM25 °C3 °C24 %1021 hPa16.1 kmWest (270°)20.4 km/h27.8 km/hPartly Cloudy
6:15 PM24 °C2 °C24 %1021 hPa16.1 kmWest (280°)18.5 km/hClear
6:35 PM23 °C3 °C27 %1021 hPa16.1 kmWest (260°)14.8 km/hClear
6:55 PM22 °C3 °C29 %1021.3 hPa16.1 kmWest (260°)16.7 km/hClear
7:15 PM22 °C3 °C29 %1021.3 hPa16.1 kmWest (270°)11.1 km/hClear
7:35 PM21 °C3 °C31 %1021.3 hPa16.1 kmWest (270°)7.4 km/hClear
7:55 PM20 °C3 °C33 %1021.7 hPa16.1 kmWest (260°)7.4 km/hClear
8:15 PM19 °C3 °C35 %1022 hPa16.1 kmSW (220°)5.6 km/hClear
8:35 PM16 °C5 °C48 %1022.4 hPa16.1 kmSouth (180°)7.4 km/hClear
8:55 PM16 °C5 °C48 %1022.4 hPa16.1 kmCalmClear
9:15 PM13 °C5 °C58 %1022.4 hPa16.1 kmSouth (170°)11.1 km/hClear
9:35 PM13 °C5 °C58 %1022.7 hPa16.1 kmCalmClear
9:55 PM13 °C3 °C51 %1022.7 hPa16.1 kmSSE (150°)7.4 km/hClear
10:15 PM12 °C3 °C54 %1022.4 hPa16.1 kmCalmClear
10:35 PM12 °C4 °C58 %1022.4 hPa16.1 kmSE (130°)5.6 km/hClear
10:55 PM12 °C3 °C54 %1022.4 hPa16.1 kmSE (140°)7.4 km/hClear
11:15 PM11 °C5 °C67 %1022.4 hPa16.1 kmCalmClear
11:35 PM9 °C5 °C76 %1022.4 hPa16.1 kmCalmClear
11:55 PM10 °C5 °C71 %1022.4 hPa16.1 kmCalmClear
Hourly data recorded from KTRK, located 0 kilometers away from Alpine Meadows, California







STORIES FROM OUR PARTNERS